Content
SEND FEEDBACK

Daily
Averages
Monthly
Summary
Switzerland

GENEVA, SWITZERLAND


Home > Europe > Switzerland
Elevation: 1364 feet     Latitude: 46 15N     Longitude: 006 08E

WEATHER
 
SELECT A DAY
Number of Records: 306,355;   Date Range: 7/1/96 - 9/20/14
 
SHARE

PRINT THIS DATA

[ ← Previous Day ]
WEATHER ALMANAC - JANUARY 19, 2013
[ Next Day → ]
[ °C ]   °F
Weather ElementAverageHighLow
Temperature28.7 °F33 °F (11:00 pm)24.8 °F (12:20 am)
Dewpoint27 °F32 °F (8:20 pm)22 °F (1:00 am)
Humidity92.5 %100 % (4:20 am)82 % (1:00 am)
Barometer29.34 in29.57 in (1:00 am)29.21 in (7:20 pm)
Wind Speed1.6 mph4.6 mph (12:00 pm)
Weather ElementAverage
Visibility1.3 mi
Wind DirectionENE (76.7 °)

Weather ElementTotal
Precipitation---
Heating Degree Days36.1 (Base 65)
Averaged from 66 records on January 19, 2013
WEATHER CONDITIONS BREAKOUT
WIND DIRECTION BREAKOUT
WEATHER BY HOUR - JANUARY 19, 2013
[ °C ]   °F
Local TimeTemperatureDewpointHumidityBarometerVisibilityWind DirectionWind SpeedGust SpeedPrecipitationEventsConditions
12:20 AM24.8 °F23.0 °F93 %29.50 in1.2 miVariable1.2 mphSnowSnow
12:50 AM24.8 °F23.0 °F93 %29.50 in1.9 miVariable1.2 mphSnowLight Snow
1:00 AM25.0 °F22.0 °F82 %29.57 in1.0 miNNW (330°)2.3 mphSnowSnow
1:20 AM24.8 °F23.0 °F93 %29.47 in1.9 miCalmSnowSnow
1:50 AM24.8 °F23.0 °F93 %29.44 in0.9 miVariable2.3 mphSnowSnow
2:00 AM25.0 °F22.0 °F86 %29.54 inNorth3.5 mph
2:50 AM24.8 °F23.0 °F93 %29.44 in0.7 miVariable1.2 mphSnowLight Snow
3:00 AM25.0 °F23.0 °F89 %29.53 inNW (310°)1.2 mph
3:20 AM24.8 °F23.0 °F93 %29.44 in1.2 miVariable2.3 mphSnowLight Snow
3:50 AM24.8 °F23.0 °F93 %29.42 in0.7 miCalmSnowLight Snow
4:20 AM24.8 °F24.8 °F100 %29.42 in1.0 miVariable1.2 mphSnowLight Snow
4:50 AM24.8 °F24.8 °F100 %29.42 in1.1 miWest (270°)1.2 mphSnowLight Snow
5:00 AM26.0 °F23.0 °F85 %29.49 inWNW (300°)3.5 mph
5:20 AM24.8 °F24.8 °F100 %29.42 in1.2 miVariable1.2 mphDrizzle
5:50 AM24.8 °F24.8 °F100 %29.39 in1.2 miCalmDrizzle
6:00 AM26.0 °F24.0 °F88 %29.48 inNW (310°)1.2 mph
6:20 AM24.8 °F24.8 °F100 %29.39 in1.2 miCalmSnowLight Drizzle
6:50 AM26.6 °F24.8 °F93 %29.39 in0.8 miVariable1.2 mphSnowSnow
7:00 AM26.0 °F24.0 °F90 %29.47 in1.0 miNW (310°)1.2 mphSnowLight Snow
7:20 AM26.6 °F24.8 °F93 %29.36 in0.8 miWest (280°)1.2 mphSnowSnow
7:50 AM26.6 °F24.8 °F93 %29.36 in0.9 miVariable1.2 mphSnowLight Snow
8:00 AM26.0 °F24.0 °F90 %29.44 inNNE (20°)1.2 mph
8:20 AM26.6 °F24.8 °F93 %29.36 in0.9 miCalmSnowLight Snow
8:50 AM26.6 °F24.8 °F93 %29.36 in1.1 miNNE (20°)1.2 mphDrizzle
9:00 AM27.0 °F24.0 °F85 %29.42 inNorth (10°)2.3 mph
9:20 AM26.6 °F24.8 °F93 %29.33 in1.6 miVariable1.2 mphDrizzle
9:50 AM26.6 °F24.8 °F93 %29.33 in1.2 miVariable1.2 mphOvercast
10:20 AM26.6 °F26.6 °F100 %29.33 in1.4 miVariable1.2 mphLight Drizzle
10:50 AM28.4 °F26.6 °F93 %29.33 in1.4 miCalmOvercast
11:00 AM28.0 °F26.0 °F87 %29.41 inNorth (10°)3.5 mph
11:20 AM28.4 °F26.6 °F93 %29.33 in1.7 miVariable2.3 mphOvercast
11:51 AM28.4 °F26.6 °F93 %29.30 in1.7 miVariable3.5 mphLight Ice Pellets
12:00 PM29.0 °F26.0 °F85 %29.38 inNNE (20°)4.6 mph
12:20 PM28.4 °F26.6 °F93 %29.30 in1.7 miVariable2.3 mphOvercast
12:50 PM30.2 °F26.6 °F86 %29.30 in1.2 miVariable2.3 mphOvercast
1:00 PM30.0 °F27.0 °F85 %29.36 in2.0 miNorth (10°)3.5 mphMist
1:20 PM30.2 °F28.4 °F93 %29.27 in1.2 miVariable2.3 mphRain-SnowLight Rain Showers
1:50 PM30.2 °F28.4 °F93 %29.27 in1.4 miVariable1.2 mphSnowLight Snow Showers
2:00 PM30.0 °F28.0 °F87 %29.33 inNorth2.3 mph
2:20 PM32.0 °F28.4 °F87 %29.27 in1.2 miCalmSnowLight Snow Showers
2:50 PM32.0 °F30.2 °F93 %29.24 in0.9 miVariable1.2 mphSnowSnow Showers
3:00 PM32.0 °F29.0 °F83 %29.32 inWest (270°)2.3 mph
3:20 PM32.0 °F30.2 °F93 %29.27 in1.1 miCalmSnowSnow Showers
3:50 PM32.0 °F30.2 °F93 %29.24 in0.7 miVariable2.3 mphSnowSnow Showers
4:20 PM32.0 °F30.2 °F93 %29.24 in0.6 miVariable1.2 mphSnowSnow
4:50 PM32.0 °F30.2 °F93 %29.24 in0.4 miVariable1.2 mphSnowSnow
5:00 PM31.0 °F29.0 °F92 %29.31 inNorth (350°)2.3 mph
5:20 PM30.2 °F30.2 °F100 %29.24 in0.4 miNNE (30°)1.2 mphSnowSnow
5:50 PM30.2 °F30.2 °F100 %29.24 in0.7 miCalmSnowLight Snow
6:00 PM31.0 °F29.0 °F92 %29.30 inWest (270°)2.3 mph
6:20 PM30.2 °F30.2 °F100 %29.24 in1.6 miVariable1.2 mphSnowLight Snow
6:50 PM32.0 °F30.2 °F93 %29.24 in1.7 miWest (280°)3.5 mphSnowLight Snow
7:00 PM32.0 °F30.0 °F89 %29.29 in2.0 miWNW (300°)3.5 mphSnowLight Snow
7:20 PM32.0 °F30.2 °F93 %29.21 inVariable1.2 mphRainRain
7:50 PM32.0 °F30.2 °F93 %29.21 in2.2 miVariable2.3 mphOvercast
8:00 PM31.0 °F30.0 °F94 %29.29 inWNW (290°)2.3 mph
8:20 PM32.0 °F32.0 °F100 %29.21 in1.6 miVariable2.3 mphOvercast
8:50 PM32.0 °F30.2 °F93 %29.21 in2.8 miWSW (240°)1.2 mphSnowLight Snow Grains
9:00 PM32.0 °F30.0 °F90 %29.29 inSW (230°)2.3 mph
9:20 PM32.0 °F30.2 °F93 %29.21 in2.8 miVariable2.3 mphOvercast
9:50 PM32.0 °F30.2 °F93 %29.21 inWNW (300°)1.2 mphSnowLight Snow Grains
10:20 PM32.0 °F30.2 °F93 %29.21 inCalmOvercast
10:50 PM32.0 °F30.2 °F93 %29.21 inVariable1.2 mphOvercast
11:00 PM33.0 °F31.0 °F87 %29.27 inWNW (300°)2.3 mph
11:20 PM32.0 °F32.0 °F100 %29.21 inVariable1.2 mphOvercast
11:50 PM32.0 °F32.0 °F100 %29.21 inVariable2.3 mphOvercast
Hourly data recorded from LSGG, located miles away from Geneva, Switzerland







STORIES FROM OUR PARTNERS